WXM80 ListenWXM80 Stop

You find our weather info also at:

UK Metoffice

WeatherCloud

Weather Underground

Northeastern Weather Network

AWEKAS

Citizen Weather Observer Program (CWOP)

HAMweather, WeatherForYou, PWS Weather


Weather Underground History page Text

Daily Summary for June 6, 2017 Units:  Metric    English   Both
« Previous Day
Next Day »
Daily Weekly Monthly Yearly Custom
  High: Low: Average:
Temperature: 14.2 °C 11.3 °C 12.8 °C
Dew Point: 13.8 °C 9.1 °C 11.5 °C
Humidity: 97 % 84 % 92 %
Wind Speed: 16.1 km/h 1 km/h 8.7 km/h
Wind Gust: 27.4 km/h - -
Wind:- - ENE
Pressure: 1012.1 hPa 1004.3 hPa -
Precipitation: 2.29 mm    
Historical Graphs
 
 
Tabular Data for June 6, 2017
Time Temperature Dew Point Pressure Wind Wind Speed Wind Gust Humidity Rainfall Rate (Hourly)
00:00 14.2 °C 13.8 °C 1006 hPa ENE 10 km/h 16.7 km/h 97 % 0 mm
00:05 14.2 °C 13.7 °C 1005.6 hPa ENE 7.7 km/h 18.5 km/h 97 % 0 mm
00:10 14.2 °C 13.7 °C 1005.6 hPa ENE 9.5 km/h 20.9 km/h 97 % 0 mm
00:15 14.1 °C 13.6 °C 1006 hPa ENE 11.1 km/h 18.5 km/h 97 % 0 mm
00:20 14 °C 13.6 °C 1006.3 hPa NE 10.9 km/h 18.5 km/h 97 % 0 mm
00:25 14 °C 13.6 °C 1006 hPa ENE 11.1 km/h 22.2 km/h 97 % 0 mm
00:30 13.9 °C 13.5 °C 1006 hPa East 10.9 km/h 16.7 km/h 97 % 0 mm
00:35 13.9 °C 13.4 °C 1006 hPa ENE 10.1 km/h 20.4 km/h 97 % 0 mm
00:40 13.8 °C 13.4 °C 1006 hPa NE 7.7 km/h 18.5 km/h 97 % 0 mm
00:45 13.8 °C 13.3 °C 1006 hPa East 13 km/h 18.5 km/h 97 % 0 mm
00:50 13.7 °C 13.3 °C 1006 hPa ENE 13 km/h 18.5 km/h 97 % 0 mm
00:55 13.7 °C 13.2 °C 1005.6 hPa ENE 13 km/h 18.5 km/h 97 % 0 mm
01:00 13.6 °C 13.2 °C 1005.6 hPa East 11.6 km/h 20.4 km/h 97 % 0 mm
01:05 13.6 °C 13.1 °C 1005.6 hPa ENE 12.9 km/h 20.4 km/h 97 % 0 mm
01:10 13.6 °C 12.9 °C 1005.6 hPa ENE 10.9 km/h 18.5 km/h 96 % 0 mm
01:15 13.6 °C 12.9 °C 1005.6 hPa East 14 km/h 16.1 km/h 96 % 0 mm
01:20 13.6 °C 13 °C 1005.6 hPa ENE 10 km/h 20.4 km/h 96 % 0 mm
01:26 13.6 °C 12.9 °C 1005.3 hPa NE 11.3 km/h 18.5 km/h 96 % 0 mm
01:31 13.6 °C 12.9 °C 1005.3 hPa ENE 12.9 km/h 20.9 km/h 96 % 0 mm
01:36 13.4 °C 12.8 °C 1005.3 hPa ENE 11.3 km/h 22.5 km/h 96 % 0 mm
01:41 13.4 °C 12.8 °C 1005.3 hPa ENE 12.9 km/h 20.9 km/h 96 % 0 mm
01:46 13.4 °C 12.8 °C 1005.3 hPa ENE 12.9 km/h 19.3 km/h 96 % 0 mm
01:50 13.4 °C 12.7 °C 1005.3 hPa ENE 10.5 km/h 14.8 km/h 95 % 0 mm
01:56 13.4 °C 12.7 °C 1005 hPa ENE 12.9 km/h 20.9 km/h 95 % 0 mm
02:01 13.4 °C 12.7 °C 1005 hPa NE 14.5 km/h 18.5 km/h 95 % 0 mm
02:06 13.4 °C 12.7 °C 1005 hPa NE 15.1 km/h 18.5 km/h 95 % 0 mm
02:10 13.4 °C 12.7 °C 1005 hPa ENE 12.6 km/h 17.7 km/h 95 % 0 mm
02:16 13.4 °C 12.5 °C 1005 hPa ENE 16.1 km/h 22.5 km/h 94 % 0 mm
02:21 13.4 °C 12.5 °C 1005 hPa ENE 12.9 km/h 20.9 km/h 94 % 0 mm
02:26 13.4 °C 12.4 °C 1005 hPa ENE 16.1 km/h 27.4 km/h 94 % 0 mm
02:31 13.4 °C 12.4 °C 1005 hPa ENE 16.1 km/h 24.1 km/h 94 % 0 mm
02:36 13.4 °C 12.5 °C 1005 hPa East 15.1 km/h 20.4 km/h 94 % 0 mm
02:41 13.4 °C 12.5 °C 1005 hPa ENE 12.9 km/h 22.5 km/h 94 % 0 mm
02:46 13.4 °C 12.5 °C 1005 hPa ENE 14.5 km/h 20.9 km/h 94 % 0 mm
02:51 13.4 °C 12.5 °C 1005 hPa ENE 12.9 km/h 20.9 km/h 94 % 0 mm
02:56 13.4 °C 12.5 °C 1005 hPa ENE 14.5 km/h 24.1 km/h 94 % 0 mm
03:01 13.4 °C 12.5 °C 1005 hPa ENE 16.1 km/h 20.4 km/h 94 % 0 mm
03:06 13.4 °C 12.5 °C 1005 hPa NE 12.9 km/h 24.1 km/h 94 % 0 mm
03:11 13.4 °C 12.5 °C 1005 hPa ENE 12.1 km/h 18.5 km/h 94 % 0 mm
03:16 13.4 °C 12.5 °C 1004.6 hPa ENE 13.8 km/h 20.9 km/h 94 % 0 mm
03:21 13.4 °C 12.4 °C 1004.6 hPa ENE 13.5 km/h 22.2 km/h 94 % 0 mm
03:26 13.4 °C 12.4 °C 1004.6 hPa ENE 10.3 km/h 22.2 km/h 94 % 0 mm
03:31 13.3 °C 12.4 °C 1004.6 hPa ENE 12.4 km/h 20.4 km/h 94 % 0 mm
03:36 13.3 °C 12.4 °C 1004.6 hPa ENE 11.1 km/h 18.5 km/h 94 % 0 mm
03:41 13.4 °C 12.4 °C 1004.6 hPa ENE 8.5 km/h 18.5 km/h 94 % 0 mm
03:46 13.4 °C 12.4 °C 1004.6 hPa ENE 10.9 km/h 20.4 km/h 94 % 0 mm
03:51 13.4 °C 12.4 °C 1004.3 hPa East 12.1 km/h 14.8 km/h 94 % 0 mm
03:56 13.4 °C 12.4 °C 1004.3 hPa East 9.8 km/h 18.5 km/h 94 % 0 mm
04:01 13.4 °C 12.3 °C 1004.3 hPa ENE 14.6 km/h 20.9 km/h 93 % 0 mm
04:06 13.4 °C 12.3 °C 1004.3 hPa ENE 12.9 km/h 16.7 km/h 93 % 0 mm
04:11 13.4 °C 12.3 °C 1004.3 hPa ENE 9.2 km/h 16.1 km/h 93 % 0 mm
04:16 13.4 °C 12.3 °C 1004.3 hPa NE 10 km/h 14.8 km/h 93 % 0 mm
04:21 13.4 °C 12.3 °C 1004.3 hPa NE 7.6 km/h 16.7 km/h 93 % 0 mm
04:26 13.4 °C 12.3 °C 1004.3 hPa ENE 12.4 km/h 16.7 km/h 93 % 0 mm
04:31 13.4 °C 12.3 °C 1004.3 hPa NE 10.9 km/h 14.8 km/h 93 % 0 mm
04:36 13.4 °C 12.3 °C 1004.3 hPa NE 9.8 km/h 11.3 km/h 93 % 0 mm
04:41 13.4 °C 12.3 °C 1004.3 hPa East 10 km/h 17.7 km/h 93 % 0 mm
04:46 13.4 °C 12.3 °C 1004.3 hPa ENE 11.7 km/h 16.7 km/h 93 % 0 mm
04:51 13.4 °C 12.3 °C 1004.3 hPa ENE 11.3 km/h 18.5 km/h 93 % 0 mm
04:56 13.4 °C 12.3 °C 1004.3 hPa NE 12.2 km/h 18.5 km/h 93 % 0 mm
05:01 13.4 °C 12.3 °C 1004.3 hPa ENE 12.2 km/h 22.2 km/h 93 % 0 mm
05:06 13.4 °C 12.3 °C 1004.3 hPa NE 9 km/h 18.5 km/h 93 % 0 mm
05:12 13.4 °C 12.3 °C 1004.3 hPa ENE 9.2 km/h 13 km/h 93 % 0 mm
05:17 13.3 °C 12.2 °C 1004.3 hPa NNE 8.4 km/h 16.7 km/h 93 % 0 mm
05:22 13.3 °C 12.2 °C 1004.6 hPa NE 11.9 km/h 14.5 km/h 93 % 0 mm
05:27 13.3 °C 12.2 °C 1004.6 hPa ENE 6.4 km/h 12.9 km/h 93 % 0 mm
05:32 13.3 °C 12.1 °C 1004.6 hPa ENE 10.3 km/h 14.8 km/h 92 % 0 mm
05:37 13.3 °C 12 °C 1004.6 hPa East 12.1 km/h 18.5 km/h 92 % 0 mm
05:42 13.3 °C 12 °C 1004.6 hPa ENE 8.5 km/h 14.8 km/h 92 % 0 mm
05:47 13.3 °C 12 °C 1004.6 hPa ENE 9.2 km/h 14.8 km/h 92 % 0 mm
05:52 13.3 °C 12 °C 1005 hPa ENE 7.1 km/h 16.7 km/h 92 % 0 mm
05:57 13.3 °C 12 °C 1005 hPa NNE 6.4 km/h 18.5 km/h 92 % 0 mm
06:02 13.3 °C 12.2 °C 1005 hPa ENE 4.7 km/h 13 km/h 93 % 0 mm
06:07 13.3 °C 12.2 °C 1005.3 hPa ENE 4.8 km/h 9.3 km/h 93 % 0 mm
06:12 13.2 °C 12.1 °C 1005.3 hPa NNE 6.3 km/h 13 km/h 93 % 0 mm
06:17 13.2 °C 12.1 °C 1005.6 hPa NNE 6.4 km/h 9.3 km/h 93 % 0 mm
06:22 13.2 °C 12.1 °C 1005.6 hPa NNW 8.2 km/h 20.9 km/h 93 % 0 mm
06:27 13.1 °C 12 °C 1005.6 hPa North 5.8 km/h 9.3 km/h 93 % 0 mm
06:32 13.1 °C 12 °C 1005.6 hPa North 9.7 km/h 18.5 km/h 93 % 0 mm
06:37 13.1 °C 11.9 °C 1005.6 hPa NNE 7.6 km/h 11.1 km/h 93 % 0 mm
06:42 13 °C 11.9 °C 1005.3 hPa NE 10 km/h 18.5 km/h 93 % 0 mm
06:47 12.9 °C 12 °C 1005.3 hPa ENE 7.9 km/h 14.8 km/h 94 % 0 mm
06:52 12.9 °C 12 °C 1005.6 hPa NE 6.3 km/h 9.3 km/h 94 % 0 mm
06:57 12.9 °C 12 °C 1005.6 hPa ENE 6.6 km/h 13 km/h 94 % 0 mm
07:02 12.9 °C 12 °C 1005.6 hPa ENE 12.1 km/h 18.5 km/h 94 % 0 mm
07:07 12.9 °C 11.8 °C 1006 hPa ENE 6.9 km/h 14.8 km/h 93 % 0 mm
07:12 12.9 °C 11.8 °C 1006 hPa ESE 7.6 km/h 24.1 km/h 93 % 0 mm
07:18 12.8 °C 11.9 °C 1006 hPa ENE 5.8 km/h 16.7 km/h 94 % 0 mm
07:23 12.8 °C 11.9 °C 1006 hPa East 6.4 km/h 11.1 km/h 94 % 0 mm
07:28 12.8 °C 11.7 °C 1006 hPa ENE 11.7 km/h 20.4 km/h 93 % 0 mm
07:33 12.8 °C 11.7 °C 1005.6 hPa NE 10.6 km/h 18.5 km/h 93 % 0 mm
07:38 12.8 °C 11.7 °C 1005.6 hPa ENE 12.1 km/h 22.2 km/h 93 % 0 mm
07:43 12.8 °C 11.7 °C 1005.6 hPa ENE 12.1 km/h 22.2 km/h 93 % 0 mm
07:48 12.8 °C 11.7 °C 1005.6 hPa ENE 11.4 km/h 18.5 km/h 93 % 0 mm
07:53 12.8 °C 11.7 °C 1005.6 hPa ENE 11.7 km/h 20.9 km/h 93 % 0 mm
07:58 12.8 °C 11.7 °C 1005.6 hPa ENE 13 km/h 16.7 km/h 93 % 0 mm
08:03 12.8 °C 11.7 °C 1005.6 hPa ENE 14.8 km/h 22.2 km/h 93 % 0 mm
08:08 12.8 °C 11.7 °C 1005.6 hPa ENE 13.4 km/h 22.2 km/h 93 % 0 mm
08:13 12.8 °C 11.7 °C 1005.3 hPa ENE 8.9 km/h 16.7 km/h 93 % 0 mm
08:18 12.7 °C 11.6 °C 1005.3 hPa East 12.4 km/h 18.5 km/h 93 % 0.25 mm
08:23 12.6 °C 11.7 °C 1005.6 hPa East 13.7 km/h 22.2 km/h 94 % 0.25 mm
08:28 12.6 °C 11.6 °C 1006 hPa East 12.9 km/h 18.5 km/h 94 % 0.25 mm
08:33 12.5 °C 11.6 °C 1006 hPa ENE 7.4 km/h 18.5 km/h 94 % 0.25 mm
08:38 12.4 °C 11.5 °C 1006.3 hPa ENE 15.1 km/h 20.4 km/h 94 % 0.51 mm
08:43 12.4 °C 11.4 °C 1006 hPa ENE 10.3 km/h 17.7 km/h 94 % 0.51 mm
08:48 12.3 °C 11.4 °C 1006 hPa ENE 7.7 km/h 13 km/h 94 % 0.51 mm
08:53 12.3 °C 11.6 °C 1006 hPa ENE 10.9 km/h 18.5 km/h 95 % 0.51 mm
08:58 12.3 °C 11.5 °C 1006 hPa ENE 13.7 km/h 16.7 km/h 95 % 0.51 mm
09:03 12.3 °C 11.5 °C 1006.3 hPa ENE 11.3 km/h 14.8 km/h 95 % 0.51 mm
09:08 12.3 °C 11.5 °C 1006.3 hPa ENE 11.6 km/h 20.4 km/h 95 % 0.51 mm
09:13 12.2 °C 11.4 °C 1006.3 hPa ENE 11.7 km/h 18.5 km/h 95 % 0.51 mm
09:18 12.3 °C 11.5 °C 1006.3 hPa ENE 14.5 km/h 24.1 km/h 95 % 0.25 mm
09:23 12.2 °C 11.4 °C 1006 hPa ENE 10.1 km/h 18.5 km/h 95 % 0.25 mm
09:28 12.3 °C 11.3 °C 1006 hPa ENE 10.5 km/h 20.4 km/h 94 % 0.25 mm
09:33 12.3 °C 11.3 °C 1006.3 hPa ENE 10.6 km/h 22.2 km/h 94 % 0.25 mm
09:38 12.3 °C 11.3 °C 1006.3 hPa ENE 13.4 km/h 18.5 km/h 94 % 0 mm
09:43 12.3 °C 11.3 °C 1006 hPa East 14.8 km/h 20.4 km/h 94 % 0.25 mm
09:48 12.3 °C 11.3 °C 1006 hPa ENE 12.7 km/h 18.5 km/h 94 % 0.25 mm
09:53 12.3 °C 11.4 °C 1006 hPa East 10.8 km/h 18.5 km/h 94 % 0.25 mm
09:58 12.4 °C 11.4 °C 1006 hPa ENE 10.3 km/h 13 km/h 94 % 0.25 mm
10:03 12.4 °C 11.3 °C 1006 hPa East 14.6 km/h 18.5 km/h 93 % 0.25 mm
10:08 12.4 °C 11.3 °C 1006 hPa ENE 10 km/h 16.7 km/h 93 % 0.25 mm
10:13 12.4 °C 11.3 °C 1006.3 hPa ENE 12.7 km/h 20.4 km/h 93 % 0.25 mm
10:18 12.6 °C 11.4 °C 1006.3 hPa ENE 9.2 km/h 18.5 km/h 93 % 0.25 mm
10:23 12.6 °C 11.3 °C 1006.7 hPa ENE 7.6 km/h 14.8 km/h 92 % 0.25 mm
10:29 12.7 °C 11.4 °C 1006.7 hPa ENE 8.2 km/h 16.7 km/h 92 % 0.25 mm
10:34 12.7 °C 11.4 °C 1006.7 hPa ENE 9.3 km/h 18.5 km/h 92 % 0.25 mm
10:39 12.8 °C 11.5 °C 1006.7 hPa ENE 10 km/h 20.4 km/h 92 % 0.25 mm
10:44 12.8 °C 11.6 °C 1006.7 hPa ENE 8.7 km/h 18.5 km/h 92 % 0 mm
10:49 12.9 °C 11.4 °C 1006.7 hPa ENE 11.1 km/h 14.8 km/h 91 % 0 mm
10:54 12.9 °C 11.4 °C 1007 hPa ENE 8.9 km/h 16.7 km/h 91 % 0 mm
10:57 12.9 °C 11.5 °C 1007 hPa NNE 8.9 km/h 14.8 km/h 91 % 0 mm
11:02 12.9 °C 11.3 °C 1007 hPa NNE 7.7 km/h 14.8 km/h 90 % 0 mm
11:07 12.9 °C 11.1 °C 1007 hPa ENE 12.2 km/h 16.7 km/h 89 % 0 mm
11:12 12.9 °C 11.3 °C 1007 hPa ENE 13.4 km/h 18.5 km/h 90 % 0 mm
11:17 12.9 °C 11.2 °C 1007 hPa ENE 8.4 km/h 13 km/h 89 % 0 mm
11:22 13 °C 11.2 °C 1007 hPa ENE 7.6 km/h 13 km/h 89 % 0 mm
11:27 13.1 °C 11.5 °C 1007 hPa NE 9.2 km/h 13 km/h 90 % 0 mm
11:32 13.2 °C 11.4 °C 1007 hPa NE 9.8 km/h 16.1 km/h 89 % 0 mm
11:37 13.1 °C 11.2 °C 1007 hPa ENE 5.5 km/h 13 km/h 88 % 0 mm
11:42 13.2 °C 11.4 °C 1007 hPa NE 4.8 km/h 7.4 km/h 89 % 0 mm
11:47 13.2 °C 11.4 °C 1007 hPa NE 4.5 km/h 16.7 km/h 89 % 0 mm
11:53 13.2 °C 11.4 °C 1007 hPa ENE 7.2 km/h 14.5 km/h 89 % 0 mm
11:55 13.2 °C 11.4 °C 1007 hPa East 9.3 km/h 13 km/h 89 % 0 mm
12:00 13.2 °C 11.4 °C 1007 hPa NE 7.9 km/h 13 km/h 89 % 0 mm
12:05 13.2 °C 11.4 °C 1007 hPa ENE 10.1 km/h 14.8 km/h 89 % 0 mm
12:10 13.1 °C 11.3 °C 1007 hPa NE 4.7 km/h 7.4 km/h 89 % 0 mm
12:15 13.1 °C 11.3 °C 1007 hPa ENE 9.5 km/h 9.5 km/h 89 % 0 mm
12:20 13.1 °C 11.3 °C 1007 hPa ENE 9.3 km/h 14.8 km/h 89 % 0 mm
12:25 13.1 °C 11.3 °C 1007 hPa ENE 4.8 km/h 8 km/h 89 % 0 mm
12:31 13.1 °C 11.3 °C 1007 hPa ENE 9.7 km/h 14.5 km/h 89 % 0 mm
12:36 13.1 °C 11.3 °C 1007 hPa ENE 8 km/h 19.3 km/h 89 % 0 mm
12:41 13.1 °C 11.3 °C 1007 hPa ENE 8 km/h 14.5 km/h 89 % 0 mm
12:46 13 °C 11.2 °C 1007 hPa ENE 8 km/h 19.3 km/h 89 % 0 mm
12:51 13 °C 11.2 °C 1006.7 hPa ENE 8 km/h 19.3 km/h 89 % 0 mm
12:56 13 °C 11.2 °C 1006.7 hPa ENE 11.3 km/h 20.9 km/h 89 % 0 mm
13:01 13 °C 11.2 °C 1007 hPa East 9.5 km/h 16.7 km/h 89 % 0 mm
13:06 12.9 °C 11.1 °C 1007 hPa ENE 6 km/h 18.5 km/h 89 % 0 mm
13:11 12.9 °C 11.3 °C 1007 hPa ENE 9.7 km/h 16.1 km/h 90 % 0 mm
13:16 12.8 °C 11.4 °C 1007 hPa ENE 8 km/h 16.1 km/h 91 % 0 mm
13:21 12.8 °C 11.4 °C 1007.3 hPa ENE 4.8 km/h 11.3 km/h 91 % 0 mm
13:26 12.8 °C 11.5 °C 1007.3 hPa ENE 3.2 km/h 14.5 km/h 92 % 0 mm
13:31 12.8 °C 11.5 °C 1007.3 hPa ENE 9.7 km/h 14.5 km/h 92 % 0 mm
13:36 12.8 °C 11.5 °C 1007.3 hPa ENE 8 km/h 16.1 km/h 92 % 0 mm
13:41 12.7 °C 11.4 °C 1007.3 hPa ENE 4.8 km/h 14.5 km/h 92 % 0 mm
13:46 12.7 °C 11.6 °C 1007.3 hPa ENE 3.2 km/h 14.5 km/h 93 % 0 mm
13:51 12.7 °C 11.6 °C 1007.3 hPa ENE 4.8 km/h 14.5 km/h 93 % 0 mm
13:56 12.6 °C 11.5 °C 1007.3 hPa ENE 3.2 km/h 11.3 km/h 93 % 0 mm
14:01 12.6 °C 11.5 °C 1007.7 hPa ENE 1.3 km/h 5.6 km/h 93 % 0.25 mm
14:06 12.6 °C 11.7 °C 1007.7 hPa ENE 1.6 km/h 11.3 km/h 94 % 0 mm
14:07 12.6 °C 11.7 °C 1007.7 hPa NE 1.8 km/h 5.6 km/h 94 % 0.25 mm
14:12 12.6 °C 11.7 °C 1007.7 hPa NE 2.3 km/h 7.4 km/h 94 % 0.25 mm
14:17 12.6 °C 11.6 °C 1007.7 hPa North 5 km/h 7.4 km/h 94 % 0.25 mm
14:22 12.6 °C 11.6 °C 1007.7 hPa ENE 6.4 km/h 12.9 km/h 94 % 0.51 mm
14:27 12.6 °C 11.6 °C 1007.7 hPa ENE 5.6 km/h 11.3 km/h 94 % 0.76 mm
14:32 12.6 °C 11.6 °C 1007.7 hPa North 3.4 km/h 5.6 km/h 94 % 1.02 mm
14:37 12.6 °C 11.8 °C 1007.7 hPa NE 4.8 km/h 7.4 km/h 95 % 1.02 mm
14:42 12.7 °C 11.9 °C 1008 hPa NE 6.1 km/h 13 km/h 95 % 1.27 mm
14:47 12.9 °C 12.1 °C 1008 hPa NE 4.5 km/h 7.4 km/h 95 % 1.27 mm
14:54 13 °C 12.4 °C 1008 hPa NNE 2.7 km/h 11.3 km/h 96 % 1.52 mm
14:59 13.1 °C 12.4 °C 1008 hPa NE 4.7 km/h 7.4 km/h 96 % 1.27 mm
15:02 13 °C 12.2 °C 1008 hPa ENE 4.8 km/h 11.1 km/h 95 % 1.27 mm
15:08 12.9 °C 12.2 °C 1008 hPa ENE 3.7 km/h 7.4 km/h 95 % 1.27 mm
15:13 13.1 °C 12.3 °C 1007.7 hPa ENE 3.5 km/h 16.7 km/h 95 % 1.27 mm
15:18 13.3 °C 12.7 °C 1007.7 hPa ENE 5.5 km/h 13 km/h 96 % 1.27 mm
15:23 13.3 °C 12.5 °C 1008 hPa ENE 3.4 km/h 11.1 km/h 95 % 1.02 mm
15:28 13.3 °C 12.5 °C 1008 hPa ENE 7.9 km/h 11.1 km/h 95 % 0.76 mm
15:33 13.2 °C 12.4 °C 1008 hPa NE 6.8 km/h 11.1 km/h 95 % 0.51 mm
15:38 13.1 °C 12.2 °C 1008 hPa NE 3.7 km/h 9.3 km/h 94 % 0.51 mm
15:43 13.1 °C 12.2 °C 1008.4 hPa ENE 5.6 km/h 6.4 km/h 94 % 0.25 mm
15:48 13.2 °C 12.2 °C 1008.4 hPa ENE 4.2 km/h 5.6 km/h 94 % 0 mm
15:53 13.1 °C 12.2 °C 1008.4 hPa NE 5 km/h 11.1 km/h 94 % 0 mm
15:58 13.1 °C 12.1 °C 1008.4 hPa ENE 1 km/h 9.3 km/h 94 % 0 mm
16:03 13.1 °C 12.1 °C 1008.4 hPa ENE 6.1 km/h 13 km/h 94 % 0 mm
16:08 13.1 °C 12.2 °C 1008.4 hPa NE 3.5 km/h 11.1 km/h 94 % 0 mm
16:13 13.2 °C 12.3 °C 1008.4 hPa NE 4.3 km/h 11.3 km/h 94 % 0 mm
16:18 13.3 °C 12.3 °C 1008.4 hPa NE 3.7 km/h 11.1 km/h 94 % 0 mm
16:23 13.4 °C 12.4 °C 1008.7 hPa ENE 5.3 km/h 11.1 km/h 94 % 0 mm
16:28 13.4 °C 12.4 °C 1008.7 hPa ENE 5 km/h 11.3 km/h 94 % 0 mm
16:33 13.3 °C 12.2 °C 1008.7 hPa NE 5 km/h 13 km/h 93 % 0 mm
16:38 13.3 °C 12 °C 1008.7 hPa ENE 5.5 km/h 7.4 km/h 92 % 0 mm
16:43 13.2 °C 11.9 °C 1008.7 hPa ENE 3.5 km/h 7.4 km/h 92 % 0 mm
16:48 13.1 °C 11.8 °C 1008.7 hPa East 3.9 km/h 8 km/h 92 % 0 mm
16:53 13.1 °C 11.8 °C 1008.7 hPa ENE 4.5 km/h 7.4 km/h 92 % 0 mm
16:56 13 °C 11.7 °C 1008.7 hPa ENE 5.5 km/h 11.1 km/h 92 % 0 mm
17:01 12.9 °C 11.6 °C 1008.7 hPa East 5.6 km/h 11.3 km/h 92 % 0 mm
17:06 12.8 °C 11.4 °C 1008.7 hPa ENE 9 km/h 13 km/h 91 % 0 mm
17:11 12.8 °C 11.5 °C 1008.7 hPa ENE 3.2 km/h 9.7 km/h 92 % 0 mm
17:16 12.7 °C 11.4 °C 1008.7 hPa ENE 4.8 km/h 14.5 km/h 92 % 0 mm
17:21 12.7 °C 11.4 °C 1008.7 hPa ENE 4.8 km/h 11.3 km/h 92 % 0 mm
17:26 12.7 °C 11.4 °C 1008.7 hPa ENE 9.7 km/h 14.5 km/h 92 % 0 mm
17:31 12.6 °C 11.3 °C 1008.7 hPa ENE 8 km/h 16.1 km/h 92 % 0 mm
17:36 12.6 °C 11.3 °C 1008.7 hPa ENE 4.8 km/h 11.3 km/h 92 % 0 mm
17:41 12.6 °C 11.3 °C 1009 hPa ENE 8 km/h 12.9 km/h 92 % 0 mm
17:46 12.6 °C 11.3 °C 1009 hPa ENE 8 km/h 19.3 km/h 92 % 0 mm
17:51 12.6 °C 11.1 °C 1009 hPa ENE 9.7 km/h 16.1 km/h 91 % 0 mm
17:56 12.6 °C 11.1 °C 1009 hPa ENE 8 km/h 14.5 km/h 91 % 0 mm
18:01 12.6 °C 11.1 °C 1009 hPa ENE 6.1 km/h 11.1 km/h 91 % 0 mm
18:06 12.6 °C 11.1 °C 1009 hPa ENE 9 km/h 13 km/h 91 % 0 mm
18:11 12.5 °C 11.1 °C 1009 hPa NNE 6.1 km/h 9.3 km/h 91 % 0 mm
18:16 12.4 °C 11 °C 1009.4 hPa NE 10.5 km/h 13 km/h 91 % 0 mm
18:21 12.4 °C 10.8 °C 1009.4 hPa East 7.9 km/h 16.7 km/h 90 % 0 mm
18:26 12.3 °C 10.7 °C 1009.4 hPa ENE 7.7 km/h 16.7 km/h 90 % 0 mm
18:31 12.3 °C 10.7 °C 1009.4 hPa East 9.5 km/h 16.7 km/h 90 % 0 mm
18:36 12.3 °C 10.7 °C 1009.7 hPa ENE 6.9 km/h 11.1 km/h 90 % 0 mm
18:41 12.3 °C 10.7 °C 1009.7 hPa NE 7.6 km/h 13 km/h 90 % 0 mm
18:46 12.3 °C 10.7 °C 1009.7 hPa ENE 9 km/h 14.8 km/h 90 % 0 mm
18:51 12.2 °C 10.4 °C 1009.7 hPa NE 9.2 km/h 18.5 km/h 89 % 0 mm
18:56 12.2 °C 10.4 °C 1010 hPa ENE 7.7 km/h 16.7 km/h 89 % 0 mm
19:01 12.2 °C 10.4 °C 1010 hPa ENE 7.6 km/h 11.1 km/h 89 % 0 mm
19:06 12.3 °C 10.5 °C 1010 hPa ENE 10.8 km/h 18.5 km/h 89 % 0 mm
19:11 12.3 °C 10.7 °C 1010.4 hPa East 7.4 km/h 14.8 km/h 90 % 0 mm
19:16 12.3 °C 10.7 °C 1010 hPa NE 6.3 km/h 7.4 km/h 90 % 0 mm
19:21 12.2 °C 10.6 °C 1010 hPa East 10 km/h 14.8 km/h 90 % 0 mm
19:26 12.2 °C 10.4 °C 1010.4 hPa ENE 6.1 km/h 11.1 km/h 89 % 0 mm
19:31 12.2 °C 10.6 °C 1010 hPa NE 7.2 km/h 14.8 km/h 90 % 0 mm
19:36 12.2 °C 10.6 °C 1010.4 hPa NE 11.3 km/h 18.5 km/h 90 % 0 mm
19:41 12.2 °C 10.4 °C 1010.4 hPa NE 10.6 km/h 18.5 km/h 89 % 0 mm
19:46 12.1 °C 10.3 °C 1010.4 hPa ENE 8.7 km/h 13 km/h 89 % 0 mm
19:51 12 °C 10.2 °C 1010.7 hPa East 10 km/h 11.3 km/h 89 % 0 mm
19:56 12 °C 10.2 °C 1010.7 hPa ENE 9 km/h 11.3 km/h 89 % 0 mm
20:02 11.9 °C 10.2 °C 1010.7 hPa NE 9.3 km/h 18.5 km/h 89 % 0 mm
20:07 11.9 °C 10.1 °C 1010.7 hPa ENE 7.1 km/h 7.4 km/h 89 % 0 mm
20:12 11.8 °C 10.2 °C 1010.7 hPa ENE 8.9 km/h 18.5 km/h 90 % 0 mm
20:17 11.8 °C 10 °C 1010.7 hPa ENE 7.9 km/h 18.5 km/h 89 % 0 mm
20:22 11.8 °C 10.2 °C 1011.1 hPa NE 6.6 km/h 11.1 km/h 90 % 0 mm
20:23 11.8 °C 10.2 °C 1011.1 hPa ENE 8.4 km/h 18.5 km/h 90 % 0 mm
20:28 11.7 °C 9.9 °C 1010.7 hPa ENE 6.6 km/h 14.5 km/h 89 % 0 mm
20:31 11.7 °C 9.8 °C 1010.7 hPa ENE 7.7 km/h 14.8 km/h 88 % 0 mm
20:36 11.7 °C 9.7 °C 1010.7 hPa ENE 10 km/h 16.7 km/h 88 % 0 mm
20:41 11.7 °C 9.8 °C 1011.1 hPa ENE 6.6 km/h 13 km/h 88 % 0 mm
20:46 11.7 °C 9.9 °C 1011.1 hPa NE 8.4 km/h 14.8 km/h 89 % 0 mm
20:51 11.7 °C 9.8 °C 1011.1 hPa ENE 4.3 km/h 9.3 km/h 88 % 0 mm
20:56 11.7 °C 9.9 °C 1011.1 hPa ENE 6.8 km/h 19.3 km/h 89 % 0 mm
21:01 11.7 °C 9.8 °C 1011.1 hPa North 3.5 km/h 14.8 km/h 88 % 0 mm
21:06 11.7 °C 9.8 °C 1011.1 hPa ENE 5.5 km/h 14.8 km/h 88 % 0 mm
21:11 11.7 °C 9.7 °C 1011.1 hPa NE 5.1 km/h 14.8 km/h 88 % 0 mm
21:16 11.7 °C 9.7 °C 1011.1 hPa ENE 7.9 km/h 13 km/h 88 % 0 mm
21:21 11.7 °C 9.6 °C 1011.1 hPa ENE 7.7 km/h 13 km/h 87 % 0 mm
21:26 11.7 °C 9.6 °C 1011.4 hPa ENE 10.6 km/h 22.2 km/h 87 % 0 mm
21:31 11.6 °C 9.3 °C 1011.4 hPa ENE 9.3 km/h 16.7 km/h 86 % 0 mm
21:36 11.7 °C 9.2 °C 1011.4 hPa ENE 11.9 km/h 16.7 km/h 85 % 0 mm
21:41 11.7 °C 9.2 °C 1011.4 hPa ENE 13.5 km/h 22.2 km/h 85 % 0 mm
21:46 11.7 °C 9.1 °C 1011.4 hPa ENE 9.3 km/h 16.7 km/h 84 % 0 mm
21:51 11.7 °C 9.3 °C 1011.7 hPa East 8.7 km/h 14.8 km/h 85 % 0 mm
21:56 11.7 °C 9.3 °C 1011.7 hPa ENE 9.7 km/h 13 km/h 85 % 0 mm
22:01 11.7 °C 9.3 °C 1011.7 hPa ENE 10 km/h 16.7 km/h 85 % 0 mm
22:06 11.7 °C 9.3 °C 1011.7 hPa ENE 11.9 km/h 18.5 km/h 85 % 0 mm
22:16 11.8 °C 9.5 °C 1011.7 hPa ENE 5 km/h 14.8 km/h 86 % 0 mm
22:21 11.8 °C 9.7 °C 1012.1 hPa NE 5.1 km/h 7.4 km/h 87 % 0 mm
22:26 11.8 °C 9.7 °C 1012.1 hPa ENE 5.6 km/h 11.1 km/h 87 % 0 mm
22:31 11.7 °C 9.6 °C 1011.7 hPa NE 7.6 km/h 11.3 km/h 87 % 0 mm
22:37 11.7 °C 9.6 °C 1011.7 hPa NNE 5.6 km/h 9.7 km/h 87 % 0 mm
22:42 11.7 °C 9.6 °C 1011.7 hPa NE 6.3 km/h 7.4 km/h 87 % 0 mm
22:47 11.6 °C 9.5 °C 1011.7 hPa ENE 5.6 km/h 14.5 km/h 87 % 0 mm
22:52 11.6 °C 9.4 °C 1011.7 hPa ENE 4.8 km/h 13 km/h 87 % 0 mm
22:57 11.5 °C 9.4 °C 1011.7 hPa NNE 4.3 km/h 6.4 km/h 87 % 0 mm
23:02 11.5 °C 9.4 °C 1011.7 hPa NNE 5 km/h 11.1 km/h 87 % 0 mm
23:07 11.4 °C 9.3 °C 1011.7 hPa NNE 4.7 km/h 9.3 km/h 87 % 0 mm
23:12 11.4 °C 9.5 °C 1011.7 hPa ENE 5.8 km/h 14.8 km/h 88 % 0 mm
23:17 11.4 °C 9.4 °C 1011.7 hPa East 7.4 km/h 14.8 km/h 88 % 0 mm
23:22 11.4 °C 9.4 °C 1012.1 hPa NNE 5 km/h 11.3 km/h 88 % 0 mm
23:27 11.4 °C 9.4 °C 1012.1 hPa ENE 6.3 km/h 14.8 km/h 88 % 0 mm
23:32 11.3 °C 9.4 °C 1012.1 hPa ENE 5 km/h 9.3 km/h 88 % 0 mm
23:37 11.3 °C 9.4 °C 1012.1 hPa NNE 6.1 km/h 13 km/h 88 % 0 mm
23:42 11.3 °C 9.4 °C 1012.1 hPa ENE 4.7 km/h 13 km/h 88 % 0 mm
23:47 11.3 °C 9.6 °C 1012.1 hPa ENE 4 km/h 9.3 km/h 89 % 0 mm
23:52 11.3 °C 9.6 °C 1012.1 hPa NE 2.7 km/h 13 km/h 89 % 0 mm
23:57 11.3 °C 9.6 °C 1012.1 hPa ENE 3.9 km/h 9.3 km/h 89 % 0 mm
Crab Meadow Weather
Compliments of Weather Underground - 3 mb

Script developed by  Jim McMurry - jmcmurry@mwt.net Adapted for the template by  Wim van der Kuil - Leuven-Template.eu

Weather Terms: Rain/Showers - Rain is a nearly steady and uniform fall of precipitation over an area. Showers are intermittent and/or scattered convective rainfall of varying intensity.